date,time,DOY,Ta_1_1_1,Pa_1_1_1,RH_1_1_1,LWin_1_1_1,LWout_1_1_1,SWin_1_1_1,SWout_1_1_1,PPFD_1_1_1,MWS_1_1_1,WD_1_1_1,SWC_1_1_1,Ts_1_1_1
[yyyy-mm-dd],[HH:MM],[ddd.ddd],[K],[Pa],[%],[W+1m-2],[W+1m-2],[W+1m-2],[W+1m-2],[µmol+1m-2s-1],[m+1s-1],[deg],[m+3m-3],[K]
2014-08-20,00:30,232.020,286.34333333333331,94189.699999999997,95.208999999999989,0.56933333333333336,4.23333333333333478E-002,3.33333333333333329E-002,-0.14766666666666667,-2.00000000000000004E-003,3.2366666666666668,298.21100000000001,0.25999999999999984,287.68733333333330
2014-08-20,01:00,232.041,286.16699999999997,94200.466666666660,95.076333333333324,0.56533333333333335,3.33333333333333398E-002,6.40000000000000291E-002,-0.14266666666666666,-2.00000000000000004E-003,3.0733333333333337,296.21033333333332,0.25999999999999984,287.62233333333330
2014-08-20,01:30,232.062,286.02333333333337,94210.533333333340,95.160333333333327,0.56099999999999994,6.23333333333333517E-002,4.03333333333333460E-002,-0.12233333333333336,-2.00000000000000004E-003,3.0366666666666666,314.95533333333333,0.25999999999999984,287.55000000000007
2014-08-20,02:00,232.083,285.77233333333334,94211.966666666660,95.285333333333355,0.44399999999999995,8.56666666666666826E-002,-3.33333333333333268E-003,-9.36666666666667175E-002,0.0000000000000000,4.0000000000000009,316.95633333333336,0.25999999999999984,287.48266666666666
2014-08-20,02:30,232.104,285.61366666666675,94224.133333333331,95.396333333333359,0.42233333333333334,4.33333333333333418E-002,4.46666666666666740E-002,-2.86666666666666771E-002,0.0000000000000000,3.3333333333333335,312.95700000000005,0.25999999999999984,287.39533333333333
2014-08-20,03:00,232.124,285.65999999999991,94249.133333333331,95.500000000000000,0.40066666666666678,3.90000000000000138E-002,5.66666666666666846E-002,-3.33333333333333355E-003,-1.00000000000000002E-003,3.2666666666666666,315.01100000000002,0.25999999999999984,287.31533333333334
2014-08-20,03:30,232.145,285.61633333333344,94261.133333333331,95.527666666666647,0.38066666666666665,5.06666666666666793E-002,3.73333333333333434E-002,-1.20000000000000020E-002,0.0000000000000000,3.5900000000000021,324.11066666666665,0.25999999999999984,287.25333333333327
2014-08-20,04:00,232.166,285.56000000000017,94292.866666666669,95.561999999999955,0.37799999999999995,4.96666666666666784E-002,3.33333333333333329E-002,-5.33333333333333316E-003,0.0000000000000000,2.9266666666666676,320.57733333333334,0.25999999999999984,287.19999999999999
2014-08-20,04:30,232.187,285.55900000000014,94314.133333333331,95.597999999999942,0.36533333333333334,5.63333333333333533E-002,2.76666666666666658E-002,-9.33333333333332890E-003,0.0000000000000000,2.3933333333333335,302.65533333333332,0.25999999999999984,287.15133333333330
2014-08-20,05:00,232.208,285.56433333333348,94344.199999999997,95.610999999999947,0.38466666666666666,3.09999999999999963E-002,0.12800000000000003,0.26900000000000002,0.60433333333333328,1.9433333333333338,316.71133333333336,0.25999999999999984,287.11133333333339
2014-08-20,05:30,232.229,285.65999999999991,94348.333333333328,95.691000000000003,0.47766666666666668,0.11166666666666666,0.98933333333333329,5.6673333333333344,13.500333333333334,1.8466666666666669,301.68933333333337,0.25999999999999984,287.08533333333332
2014-08-20,06:00,232.249,285.74766666666682,94375.133333333331,95.687666666666644,0.44366666666666671,0.26499999999999996,2.6146666666666660,16.109666666666669,38.578666666666678,1.9500000000000002,293.79933333333332,0.25999999999999984,287.06766666666664
2014-08-20,06:30,232.270,285.81666666666661,94408.100000000006,95.688666666666634,0.45033333333333331,0.49566666666666681,5.7673333333333323,34.775666666666666,81.607666666666688,1.5800000000000003,296.55533333333335,0.25999999999999984,287.06900000000007
2014-08-20,07:00,232.291,286.07200000000000,94432.433333333334,95.722000000000008,0.47133333333333333,0.70166666666666666,8.5263333333333335,49.938666666666677,115.09266666666667,1.7966666666666666,294.63400000000001,0.25999999999999984,287.07966666666670
2014-08-20,07:30,232.312,286.34033333333332,94429.633333333331,95.703333333333319,0.66066666666666662,1.1840000000000002,14.792333333333334,88.298999999999992,201.33799999999999,2.2266666666666670,308.75533333333334,0.25999999999999984,287.11466666666661
2014-08-20,08:00,232.333,286.55133333333345,94462.433333333334,95.680333333333280,1.0000000000000002,1.5876666666666668,18.873333333333335,117.95866666666667,266.20600000000002,2.3433333333333337,288.92233333333331,0.25999999999999984,287.18366666666662
2014-08-20,08:30,232.354,286.96533333333338,94473.766666666663,95.625999999999991,1.5390000000000004,3.0273333333333325,35.176666666666669,224.27799999999999,464.37000000000006,2.8066666666666671,274.52233333333334,0.25999999999999984,287.28300000000013
2014-08-20,09:00,232.374,287.35899999999998,94512.800000000003,95.444666666666677,0.98899999999999999,3.2089999999999992,40.716333333333331,259.28500000000003,535.56833333333327,2.6066666666666669,275.95533333333333,0.25999999999999984,287.44366666666673
2014-08-20,09:30,232.395,287.61133333333328,94546.133333333331,94.902666666666661,0.44533333333333336,2.6293333333333333,38.778666666666673,249.45333333333335,526.30399999999986,2.7066666666666679,286.80000000000001,0.25999999999999984,287.61433333333332
2014-08-20,10:00,232.416,288.04466666666667,94547.766666666663,93.831666666666663,-0.23799999999999996,2.2806666666666668,41.457666666666675,261.24566666666664,544.92333333333340,2.7700000000000009,286.71066666666667,0.25999999999999984,287.76933333333341
2014-08-20,10:30,232.437,288.54000000000002,94533.100000000006,91.833000000000027,-0.20333333333333331,5.0810000000000004,84.240333333333325,541.48999999999990,1108.5343333333335,2.1499999999999999,289.68833333333333,0.25999999999999984,287.92233333333331
2014-08-20,11:00,232.458,289.62766666666670,94520.566666666666,86.633666666666656,-0.31933333333333341,4.1323333333333334,87.416333333333313,545.30733333333330,1120.2303333333332,3.1200000000000001,291.43299999999999,0.25999999999999984,288.16966666666661
2014-08-20,11:30,232.479,290.00999999999993,94534.800000000003,83.889666666666656,-2.2090000000000005,0.28466666666666679,41.095333333333329,256.71400000000006,527.94100000000003,2.6533333333333338,298.04399999999998,0.25999999999999984,288.40566666666660
2014-08-20,12:00,232.499,290.27033333333333,94561.333333333328,83.250333333333330,-0.42666666666666669,1.0403333333333331,48.477666666666671,287.91633333333334,592.52299999999991,1.9500000000000000,255.15600000000001,0.25999999999999984,288.51633333333336
2014-08-20,12:30,232.520,290.60233333333332,94601.233333333337,81.965333333333348,-0.12466666666666668,0.15133333333333335,34.139666666666670,205.53100000000001,426.02666666666670,2.3733333333333335,233.45533333333333,0.25999999999999984,288.62433333333337
2014-08-20,13:00,232.541,290.76866666666672,94602.666666666672,81.101666666666674,-1.0719999999999998,0.52933333333333332,35.566666666666670,208.10099999999997,445.09266666666662,0.80000000000000004,229.91166666666669,0.25999999999999984,288.68499999999983
2014-08-20,13:30,232.562,290.97033333333331,94578.266666666663,79.919000000000025,-1.3263333333333331,0.49233333333333351,50.032333333333334,299.05866666666668,620.12666666666667,2.2166666666666668,270.47833333333335,0.25999999999999984,288.75200000000007
2014-08-20,14:00,232.583,290.72199999999998,94562.666666666672,83.644333333333336,-0.31166666666666665,-4.7269999999999994,46.778333333333343,275.08533333333338,557.86866666666663,3.2299999999999995,207.94433333333333,0.25733333333333325,288.86566666666670
2014-08-20,14:30,232.604,290.17566666666670,94573.800000000003,87.454666666666654,1.5703333333333334,-7.2819999999999991,47.820666666666668,280.48000000000008,575.16733333333332,3.0266666666666660,171.26666666666668,0.25000000000000000,288.93433333333331
2014-08-20,15:00,232.624,290.56333333333339,94595.933333333334,85.176333333333332,-0.14833333333333337,-8.1920000000000002,39.129999999999988,231.70766666666671,472.19566666666657,2.2233333333333336,200.62333333333336,0.25000000000000000,288.99233333333336
2014-08-20,15:30,232.645,290.93800000000005,94619.000000000000,82.480000000000004,-2.1056666666666666,-9999.0,23.743666666666670,143.69999999999999,297.73599999999999,1.6133333333333337,239.42166666666665,0.25000000000000000,289.04300000000006
2014-08-20,16:00,232.666,290.66533333333336,94658.466666666660,85.501333333333363,-1.4720000000000004,-7.6513043478260867,9.2446666666666655,56.381999999999991,125.98400000000001,1.7500000000000002,243.63366666666667,0.25000000000000000,289.04533333333336
2014-08-20,16:30,232.687,289.99833333333333,94665.100000000006,90.981999999999999,0.66833333333333322,-1.9666666666666672,20.455000000000002,117.15399999999998,251.05633333333338,1.9233333333333331,301.24466666666666,0.25000000000000000,288.98700000000002
2014-08-20,17:00,232.708,289.91666666666669,94658.766666666663,90.924666666666639,0.12766666666666662,-3.3733333333333331,22.701999999999998,136.90266666666668,286.00633333333337,2.1566666666666663,320.85499999999996,0.25000000000000000,288.96800000000002
2014-08-20,17:30,232.729,289.88533333333339,94671.800000000003,91.589666666666673,-0.38266666666666677,-2.5593333333333335,9.0820000000000007,54.087333333333341,118.67233333333336,1.3033333333333332,254.66666666666666,0.25000000000000000,288.96700000000004
2014-08-20,18:00,232.749,289.41099999999989,94684.533333333340,93.519000000000005,0.43466666666666670,-0.30633333333333340,4.0366666666666671,22.086000000000002,50.392333333333340,1.9033333333333333,230.84466666666668,0.25000000000000000,288.91600000000000
2014-08-20,18:30,232.770,289.25766666666681,94684.766666666663,94.493333333333325,0.61266666666666691,0.21600000000000005,3.0256666666666665,17.528333333333332,40.411666666666669,2.0400000000000000,122.13266666666665,0.25000000000000000,288.84066666666666
2014-08-20,19:00,232.791,289.10000000000014,94703.666666666672,94.547666666666657,0.43533333333333324,3.96666666666666626E-002,0.87733333333333330,3.8273333333333341,10.628333333333334,2.0299999999999998,124.89966666666666,0.25000000000000000,288.77366666666677
2014-08-20,19:30,232.812,288.98666666666668,94722.100000000006,94.705333333333328,0.45800000000000007,-6.30000000000000004E-002,0.38266666666666654,-0.18899999999999997,0.79366666666666663,1.7866666666666673,85.334000000000017,0.25000000000000000,288.70633333333330
2014-08-20,20:00,232.833,288.85999999999990,94741.466666666660,93.734999999999971,0.66699999999999993,-0.10900000000000003,0.53299999999999992,-0.76166666666666660,4.00000000000000008E-003,1.1566666666666667,73.344000000000008,0.25000000000000000,288.64066666666679
2014-08-20,20:30,232.854,288.86999999999989,94763.100000000006,93.494000000000000,0.48800000000000021,-0.14266666666666664,0.57266666666666655,-0.77933333333333310,2.00000000000000004E-003,1.0499999999999998,152.85433333333330,0.25000000000000000,288.57933333333341
2014-08-20,21:00,232.874,288.80100000000016,94757.866666666669,94.304333333333304,0.16933333333333336,-0.18700000000000000,0.47900000000000009,-0.79499999999999993,6.66666666666666623E-003,1.3833333333333335,47.900666666666666,0.25000000000000000,288.52300000000008
2014-08-20,21:30,232.895,288.76000000000016,94755.366666666669,94.563333333333333,0.25400000000000011,-0.10633333333333329,0.37399999999999983,-0.54266666666666663,1.00000000000000002E-003,1.5800000000000003,53.633333333333326,0.25000000000000000,288.47333333333336
2014-08-20,22:00,232.916,288.73000000000008,94756.433333333334,94.638333333333279,0.24233333333333337,-0.15200000000000002,0.32366666666666660,-0.62899999999999989,9.00000000000000105E-003,1.9333333333333333,65.233666666666664,0.25000000000000000,288.43300000000005
2014-08-20,22:30,232.937,288.78766666666667,94763.533333333340,94.410333333333341,0.25466666666666665,-0.16333333333333336,0.40133333333333343,-0.62199999999999989,2.00000000000000004E-003,1.4999999999999998,92.545333333333332,0.25000000000000000,288.39833333333331
2014-08-20,23:00,232.958,288.84799999999990,94759.766666666663,93.949666666666658,0.12400000000000001,-0.20333333333333339,0.42933333333333329,-0.88199999999999978,1.00000000000000002E-003,1.9733333333333327,109.32199999999999,0.25000000000000000,288.36833333333328
2014-08-20,23:30,232.979,288.75466666666671,94773.000000000000,94.061333333333337,4.33333333333333348E-002,-0.17033333333333334,0.32033333333333336,-0.86066666666666647,1.00000000000000002E-003,2.2266666666666666,140.29899999999998,0.25000000000000000,288.34900000000010
2014-08-21,00:00,233.000,288.69999999999999,94774.100000000006,94.174333333333351,0.12100000000000001,-0.18633333333333335,0.36699999999999988,-0.76300000000000001,0.0000000000000000,2.2366666666666664,149.80000000000001,0.25000000000000000,288.33033333333333
